| time (UTC) | temp C | wind direction | speed KPH | gust KPH | rain 1hr cm | rain 24hr cm | rain mn cm | humidity % | barometer mb |
| 20260510164305 | 10 | 78 | 6.4 | 19.3 | 0.03 | 0.10 | 0.10 | 59 | 1016.7 |
| 20260510163805 | 11 | 25 | 6.4 | 17.7 | 0.03 | 0.10 | 0.10 | 61 | 1016.6 |
| 20260510163311 | 11 | 98 | 6.4 | 17.7 | 0.03 | 0.10 | 0.10 | 61 | 1016.3 |
| 20260510162806 | 11 | 8 | 6.4 | 20.9 | 0.03 | 0.10 | 0.10 | 58 | 1015.5 |
| 20260510162306 | 11 | 47 | 6.4 | 20.9 | 0.03 | 0.10 | 0.10 | 59 | 1015.0 |
| 20260510161811 | 11 | 51 | 4.8 | 17.7 | 0.03 | 0.10 | 0.10 | 62 | 1016.7 |
| 20260510161306 | 11 | 84 | 6.4 | 17.7 | 0.03 | 0.10 | 0.10 | 61 | 1016.6 |
| 20260510160807 | 12 | 69 | 6.4 | 19.3 | 0.03 | 0.10 | 0.10 | 59 | 1016.2 |
| 20260510160306 | 12 | 26 | 6.4 | 19.3 | 0.03 | 0.10 | 0.10 | 57 | 1015.2 |
| 20260510160134 | 12 | 351 | 8.0 | 19.3 | 0.03 | 0.10 | 0.10 | 58 | 1015.2 |
| 20260510155306 | 12 | 325 | 8.0 | 19.3 | 0.00 | 0.08 | 0.08 | 57 | 1014.9 |
| 20260510154807 | 12 | 86 | 6.4 | 19.3 | 0.00 | 0.08 | 0.08 | 57 | 1014.9 |
| 20260510154307 | 12 | 44 | 6.4 | 20.9 | 0.00 | 0.08 | 0.08 | 56 | 1014.9 |
| 20260510153806 | 12 | 98 | 6.4 | 20.9 | 0.00 | 0.08 | 0.08 | 57 | 1014.8 |
| 20260510153308 | 11 | 338 | 4.8 | 16.1 | 0.00 | 0.08 | 0.08 | 58 | 1016.2 |
| 20260510153114 | 11 | 46 | 6.4 | 17.7 | 0.00 | 0.08 | 0.08 | 61 | 1016.2 |
| 20260510152300 | 11 | 6 | 6.4 | 17.7 | 0.00 | 0.08 | 0.08 | 60 | 1016.8 |
| 20260510151800 | 12 | 56 | 6.4 | 16.1 | 0.00 | 0.08 | 0.08 | 59 | 1016.7 |
| 20260510151300 | 12 | 71 | 6.4 | 16.1 | 0.00 | 0.08 | 0.08 | 59 | 1015.8 |
| 20260510151146 | 11 | 63 | 6.4 | 19.3 | 0.03 | 0.08 | 0.08 | 59 | 1015.7 |
| 20260510150300 | 11 | 72 | 6.4 | 19.3 | 0.03 | 0.08 | 0.08 | 61 | 1015.5 |
| 20260510150109 | 11 | 140 | 6.4 | 17.7 | 0.03 | 0.08 | 0.08 | 63 | 1016.3 |
| 20260510145300 | 11 | 8 | 6.4 | 16.1 | 0.03 | 0.08 | 0.08 | 63 | 1016.8 |
| 20260510144801 | 12 | 63 | 6.4 | 17.7 | 0.08 | 0.08 | 0.08 | 63 | 1016.6 |
| 20260510144357 | 11 | 299 | 6.4 | 17.7 | 0.08 | 0.08 | 0.08 | 62 | 1015.7 |
| 20260510143258 | 12 | 26 | 6.4 | 24.1 | 0.08 | 0.08 | 0.08 | 61 | 1016.5 |
| 20260510142759 | 11 | 11 | 6.4 | 19.3 | 0.08 | 0.08 | 0.08 | 61 | 1016.8 |
| 20260510142354 | 12 | 47 | 6.4 | 19.3 | 0.08 | 0.08 | 0.08 | 61 | 1017.0 |
| 20260510141629 | 12 | 328 | 8.0 | 20.9 | 0.08 | 0.08 | 0.05 | 60 | 1015.9 |
| 20260510140759 | 12 | 96 | 6.4 | 17.7 | 0.05 | 0.05 | 0.05 | 62 | 1015.9 |
| 20260510140300 | 12 | 67 | 6.4 | 19.3 | 0.05 | 0.05 | 0.05 | 61 | 1017.2 |
| 20260510135801 | 12 | 59 | 8.0 | 24.1 | 0.05 | 0.05 | 0.05 | 61 | 1015.5 |
| 20260510135300 | 12 | 349 | 8.0 | 24.1 | 0.05 | 0.05 | 0.03 | 62 | 1015.8 |
| 20260510134800 | 12 | 83 | 8.0 | 24.1 | 0.00 | 0.00 | 0.00 | 61 | 1016.2 |
| 20260510134259 | 12 | 94 | 8.0 | 20.9 | 0.00 | 0.00 | 0.00 | 60 | 1015.9 |
| 20260510133758 | 12 | 74 | 8.0 | 20.9 | 0.00 | 0.00 | 0.00 | 59 | 1016.2 |
| 20260510133300 | 12 | 353 | 6.4 | 17.7 | 0.00 | 0.00 | 0.00 | 60 | 1015.1 |
| 20260510132757 | 12 | 36 | 6.4 | 17.7 | 0.00 | 0.00 | 0.00 | 59 | 1016.4 |
| 20260510132257 | 12 | 73 | 6.4 | 17.7 | 0.00 | 0.00 | 0.00 | 63 | 1015.9 |
| 20260510131757 | 12 | 186 | 6.4 | 16.1 | 0.00 | 0.00 | 0.00 | 63 | 1016.9 |
| 20260510131250 | 12 | 39 | 4.8 | 16.1 | 0.00 | 0.00 | 0.00 | 63 | 1017.1 |
| 20260510130749 | 12 | 334 | 6.4 | 20.9 | 0.00 | 0.00 | 0.00 | 62 | 1016.7 |
| 20260510130250 | 12 | 265 | 8.0 | 20.9 | 0.00 | 0.00 | 0.00 | 62 | 1017.4 |
| 20260510125750 | 12 | 61 | 8.0 | 19.3 | 0.00 | 0.00 | 0.00 | 63 | 1017.3 |
| 20260510125251 | 12 | 24 | 8.0 | 19.3 | 0.00 | 0.00 | 0.00 | 61 | 1015.7 |
| 20260510124750 | 12 | 74 | 6.4 | 17.7 | 0.00 | 0.00 | 0.00 | 63 | 1016.6 |
| 20260510124744 | 12 | 79 | 6.4 | 17.7 | 0.00 | 0.00 | 0.00 | 63 | 1016.7 |
| 20260510123248 | 12 | 108 | 8.0 | 20.9 | 0.00 | 0.00 | 0.00 | 64 | 1017.2 |
| 20260510122749 | 12 | 35 | 8.0 | 24.1 | 0.00 | 0.00 | 0.00 | 64 | 1016.8 |
| 20260510122247 | 12 | 268 | 8.0 | 24.1 | 0.00 | 0.00 | 0.00 | 65 | 1016.5 |
| 20260510121746 | 12 | 63 | 8.0 | 19.3 | 0.00 | 0.00 | 0.00 | 66 | 1017.4 |
| 20260510121246 | 12 | 286 | 6.4 | 19.3 | 0.00 | 0.00 | 0.00 | 65 | 1017.2 |
| 20260510120746 | 12 | 341 | 6.4 | 19.3 | 0.00 | 0.00 | 0.00 | 64 | 1015.5 |
| 20260510120248 | 12 | 315 | 6.4 | 20.9 | 0.00 | 0.00 | 0.00 | 62 | 1016.6 |
| 20260510115745 | 12 | 8 | 6.4 | 20.9 | 0.00 | 0.00 | 0.00 | 62 | 1017.1 |
| 20260510115340 | 12 | 109 | 6.4 | 20.9 | 0.00 | 0.00 | 0.00 | 67 | 1016.3 |
| 20260510114245 | 12 | 3 | 6.4 | 20.9 | 0.00 | 0.00 | 0.00 | 64 | 1017.0 |
| 20260510113745 | 11 | 325 | 6.4 | 20.9 | 0.00 | 0.00 | 0.00 | 65 | 1015.9 |
| 20260510113246 | 11 | 349 | 6.4 | 17.7 | 0.00 | 0.00 | 0.00 | 67 | 1017.4 |
| 20260510112745 | 11 | 82 | 6.4 | 17.7 | 0.00 | 0.00 | 0.00 | 69 | 1017.4 |
| 20260510112244 | 11 | 64 | 6.4 | 17.7 | 0.00 | 0.00 | 0.00 | 68 | 1017.6 |
| 20260510111745 | 11 | 318 | 6.4 | 17.7 | 0.00 | 0.00 | 0.00 | 69 | 1017.9 |
| 20260510111244 | 11 | 105 | 6.4 | 17.7 | 0.00 | 0.00 | 0.00 | 68 | 1018.2 |
| 20260510110840 | 11 | 53 | 6.4 | 16.1 | 0.00 | 0.00 | 0.00 | 67 | 1017.8 |
| 20260510105744 | 11 | 79 | 6.4 | 17.7 | 0.00 | 0.00 | 0.00 | 70 | 1017.7 |
| 20260510105245 | 11 | 62 | 6.4 | 19.3 | 0.00 | 0.00 | 0.00 | 71 | 1018.1 |
| 20260510104745 | 11 | 63 | 6.4 | 19.3 | 0.00 | 0.00 | 0.00 | 71 | 1017.9 |
| 20260510104245 | 11 | 5 | 6.4 | 16.1 | 0.00 | 0.00 | 0.00 | 70 | 1017.6 |
| 20260510103745 | 11 | 67 | 6.4 | 19.3 | 0.00 | 0.00 | 0.00 | 72 | 1017.3 |
| 20260510103244 | 11 | 341 | 8.0 | 20.9 | 0.00 | 0.00 | 0.00 | 72 | 1017.9 |
| 20260510102747 | 11 | 79 | 6.4 | 20.9 | 0.00 | 0.00 | 0.00 | 71 | 1017.7 |
| 20260510102241 | 11 | 7 | 6.4 | 19.3 | 0.00 | 0.00 | 0.00 | 72 | 1017.1 |
| 20260510101740 | 11 | 70 | 6.4 | 19.3 | 0.00 | 0.00 | 0.00 | 72 | 1017.6 |
| 20260510101241 | 11 | 81 | 6.4 | 16.1 | 0.00 | 0.00 | 0.00 | 73 | 1018.2 |
| 20260510100740 | 11 | 86 | 6.4 | 17.7 | 0.00 | 0.00 | 0.00 | 73 | 1018.2 |
| 20260510100240 | 11 | 298 | 6.4 | 19.3 | 0.00 | 0.00 | 0.00 | 74 | 1017.9 |
| 20260510095740 | 11 | 52 | 4.8 | 22.5 | 0.00 | 0.00 | 0.00 | 75 | 1018.1 |
| 20260510095240 | 11 | 321 | 6.4 | 22.5 | 0.00 | 0.00 | 0.00 | 75 | 1018.0 |
| 20260510094740 | 11 | 18 | 6.4 | 20.9 | 0.00 | 0.00 | 0.00 | 76 | 1017.9 |
| 20260510094240 | 10 | 151 | 6.4 | 20.9 | 0.00 | 0.00 | 0.00 | 78 | 1017.9 |
| 20260510093741 | 10 | 3 | 4.8 | 16.1 | 0.00 | 0.00 | 0.00 | 81 | 1018.2 |
| 20260510093240 | 10 | 356 | 4.8 | 20.9 | 0.00 | 0.00 | 0.00 | 83 | 1018.6 |
| 20260510092740 | 10 | 29 | 6.4 | 20.9 | 0.00 | 0.00 | 0.00 | 82 | 1018.9 |
| 20260510092242 | 10 | 145 | 6.4 | 20.9 | 0.00 | 0.00 | 0.00 | 80 | 1019.1 |
| 20260510091740 | 10 | 10 | 6.4 | 20.9 | 0.00 | 0.00 | 0.00 | 78 | 1018.7 |
| 20260510091240 | 11 | 331 | 6.4 | 19.3 | 0.00 | 0.00 | 0.00 | 78 | 1018.5 |
| 20260510090742 | 11 | 7 | 6.4 | 19.3 | 0.00 | 0.00 | 0.00 | 78 | 1018.4 |
| 20260510090242 | 10 | 346 | 6.4 | 16.1 | 0.00 | 0.00 | 0.00 | 79 | 1018.2 |
| 20260510085741 | 10 | 48 | 6.4 | 20.9 | 0.00 | 0.00 | 0.00 | 79 | 1018.3 |
| 20260510085239 | 10 | 8 | 6.4 | 20.9 | 0.00 | 0.00 | 0.00 | 80 | 1018.6 |
| 20260510084739 | 10 | 353 | 4.8 | 17.7 | 0.00 | 0.00 | 0.00 | 80 | 1018.8 |
| 20260510084553 | 10 | 323 | 6.4 | 17.7 | 0.00 | 0.00 | 0.00 | 80 | 1018.7 |
| 20260510083740 | 10 | 334 | 4.8 | 17.7 | 0.00 | 0.00 | 0.00 | 80 | 1018.7 |
| 20260510083239 | 10 | 73 | 4.8 | 16.1 | 0.00 | 0.00 | 0.00 | 81 | 1018.7 |
| 20260510082738 | 10 | 90 | 4.8 | 17.7 | 0.00 | 0.00 | 0.00 | 82 | 1018.8 |
| 20260510082551 | 10 | 76 | 4.8 | 17.7 | 0.00 | 0.00 | 0.00 | 82 | 1018.9 |
| 20260510081735 | 10 | 64 | 4.8 | 20.9 | 0.00 | 0.00 | 0.00 | 82 | 1018.9 |
| 20260510081549 | 10 | 17 | 4.8 | 20.9 | 0.00 | 0.00 | 0.00 | 82 | 1019.0 |
| 20260510080734 | 10 | 20 | 6.4 | 20.9 | 0.00 | 0.00 | 0.00 | 82 | 1019.0 |
| 20260510080233 | 10 | 14 | 6.4 | 20.9 | 0.00 | 0.00 | 0.00 | 82 | 1018.8 |
| 20260510075735 | 10 | 27 | 6.4 | 17.7 | 0.00 | 0.00 | 0.00 | 83 | 1018.8 |
| 20260510075235 | 10 | 83 | 6.4 | 17.7 | 0.00 | 0.00 | 0.00 | 84 | 1018.8 |
| 20260510074834 | 10 | 38 | 6.4 | 17.7 | 0.00 | 0.00 | 0.00 | 84 | 1018.8 |
| 20260510073736 | 10 | 38 | 4.8 | 22.5 | 0.00 | 0.00 | 0.00 | 85 | 1018.8 |
| 20260510073235 | 10 | 62 | 6.4 | 22.5 | 0.00 | 0.00 | 0.00 | 85 | 1018.6 |
| 20260510072732 | 10 | 67 | 6.4 | 20.9 | 0.00 | 0.00 | 0.00 | 85 | 1018.8 |
| 20260510072233 | 10 | 309 | 6.4 | 20.9 | 0.00 | 0.00 | 0.00 | 86 | 1018.6 |
| 20260510071733 | 10 | 52 | 6.4 | 20.9 | 0.00 | 0.00 | 0.00 | 86 | 1018.6 |
| 20260510071231 | 10 | 284 | 6.4 | 17.7 | 0.00 | 0.00 | 0.00 | 86 | 1018.6 |
| 20260510070731 | 10 | 158 | 6.4 | 17.7 | 0.00 | 0.00 | 0.00 | 86 | 1018.5 |
| 20260510070231 | 10 | 52 | 6.4 | 17.7 | 0.00 | 0.00 | 0.00 | 86 | 1018.4 |
| 20260510065730 | 10 | 347 | 6.4 | 16.1 | 0.00 | 0.00 | 0.00 | 86 | 1018.5 |
| 20260510065231 | 10 | 73 | 6.4 | 17.7 | 0.00 | 0.00 | 0.00 | 87 | 1018.5 |
| 20260510064730 | 10 | 284 | 6.4 | 17.7 | 0.00 | 0.00 | 0.00 | 87 | 1018.5 |
| 20260510064550 | 10 | 63 | 6.4 | 17.7 | 0.00 | 0.00 | 0.00 | 87 | 1018.5 |
| 20260510063731 | 10 | 54 | 4.8 | 16.1 | 0.00 | 0.00 | 0.00 | 87 | 1018.5 |
| 20260510063231 | 10 | 65 | 6.4 | 24.1 | 0.00 | 0.00 | 0.00 | 88 | 1018.4 |
| 20260510063041 | 10 | 53 | 4.8 | 24.1 | 0.00 | 0.00 | 0.00 | 88 | 1018.3 |
| 20260510062232 | 10 | 30 | 4.8 | 19.3 | 0.00 | 0.00 | 0.00 | 89 | 1018.4 |
| 20260510062047 | 10 | 270 | 4.8 | 16.1 | 0.00 | 0.00 | 0.00 | 89 | 1018.3 |
| 20260510061231 | 10 | 60 | 6.4 | 19.3 | 0.00 | 0.00 | 0.00 | 89 | 1018.2 |
| 20260510060730 | 10 | 307 | 6.4 | 19.3 | 0.00 | 0.00 | 0.00 | 89 | 1018.1 |
| 20260510060232 | 10 | 338 | 4.8 | 17.7 | 0.00 | 0.00 | 0.00 | 90 | 1018.1 |
| 20260510060042 | 10 | 320 | 6.4 | 17.7 | 0.00 | 0.00 | 0.00 | 90 | 1018.0 |
| 20260510055231 | 10 | 0 | 4.8 | 16.1 | 0.00 | 0.00 | 0.00 | 90 | 1018.0 |
| 20260510054731 | 10 | 20 | 6.4 | 16.1 | 0.00 | 0.00 | 0.00 | 90 | 1017.9 |
| 20260510054231 | 10 | 333 | 6.4 | 16.1 | 0.00 | 0.00 | 0.00 | 90 | 1017.9 |
| 20260510053731 | 10 | 63 | 4.8 | 16.1 | 0.00 | 0.00 | 0.00 | 91 | 1017.9 |
| 20260510053541 | 10 | 319 | 3.2 | 14.5 | 0.00 | 0.00 | 0.00 | 91 | 1017.9 |
| 20260510052731 | 10 | 19 | 3.2 | 14.5 | 0.00 | 0.00 | 0.00 | 92 | 1018.0 |
| 20260510052232 | 10 | 349 | 3.2 | 16.1 | 0.00 | 0.00 | 0.00 | 92 | 1018.0 |
| 20260510051731 | 9 | 339 | 4.8 | 16.1 | 0.00 | 0.00 | 0.00 | 92 | 1018.1 |
| 20260510051232 | 9 | 89 | 4.8 | 16.1 | 0.00 | 0.00 | 0.00 | 93 | 1018.2 |
| 20260510050859 | 9 | 336 | 4.8 | 16.1 | 0.00 | 0.00 | 0.00 | 94 | 1018.4 |
| 20260510045731 | 9 | 329 | 3.2 | 14.5 | 0.00 | 0.00 | 0.00 | 95 | 1018.4 |
| 20260510045542 | 9 | 5 | 3.2 | 9.7 | 0.00 | 0.00 | 0.00 | 95 | 1018.4 |
| 20260510044732 | 8 | 37 | 3.2 | 9.7 | 0.00 | 0.00 | 0.00 | 96 | 1018.5 |
| 20260510044232 | 8 | 340 | 3.2 | 9.7 | 0.00 | 0.00 | 0.00 | 96 | 1018.5 |
| 20260510043732 | 8 | 0 | 1.6 | 11.3 | 0.00 | 0.00 | 0.00 | 96 | 1018.4 |
| 20260510043554 | 8 | 303 | 3.2 | 11.3 | 0.00 | 0.00 | 0.00 | 96 | 1018.3 |
| 20260510042732 | 8 | 353 | 3.2 | 9.7 | 0.00 | 0.00 | 0.00 | 96 | 1018.5 |
| 20260510042233 | 8 | 52 | 3.2 | 11.3 | 0.00 | 0.00 | 0.00 | 96 | 1018.6 |
| 20260510041733 | 8 | 0 | 3.2 | 11.3 | 0.00 | 0.00 | 0.00 | 96 | 1018.4 |
| 20260510041233 | 8 | 334 | 3.2 | 9.7 | 0.00 | 0.00 | 0.00 | 96 | 1018.5 |
| 20260510040732 | 8 | 310 | 3.2 | 11.3 | 0.00 | 0.00 | 0.00 | 96 | 1018.6 |
| 20260510040232 | 8 | 292 | 3.2 | 11.3 | 0.00 | 0.00 | 0.00 | 96 | 1018.7 |
| 20260510040042 | 8 | 0 | 3.2 | 9.7 | 0.00 | 0.00 | 0.00 | 96 | 1018.6 |
| 20260510035230 | 8 | 320 | 3.2 | 11.3 | 0.00 | 0.00 | 0.00 | 96 | 1018.6 |
| 20260510034730 | 8 | 30 | 1.6 | 11.3 | 0.00 | 0.00 | 0.00 | 95 | 1018.7 |
| 20260510034230 | 8 | 202 | 3.2 | 11.3 | 0.00 | 0.00 | 0.00 | 95 | 1018.7 |
| 20260510034045 | 8 | 349 | 4.8 | 11.3 | 0.00 | 0.00 | 0.00 | 95 | 1018.7 |
| 20260510033230 | 8 | 343 | 3.2 | 11.3 | 0.00 | 0.00 | 0.00 | 95 | 1018.8 |
| 20260510032731 | 8 | 349 | 3.2 | 11.3 | 0.00 | 0.00 | 0.00 | 95 | 1018.8 |
| 20260510032540 | 9 | 20 | 3.2 | 12.9 | 0.00 | 0.00 | 0.00 | 95 | 1018.9 |
| 20260510031731 | 9 | 148 | 3.2 | 12.9 | 0.00 | 0.00 | 0.00 | 95 | 1018.8 |
| 20260510031229 | 9 | 28 | 3.2 | 12.9 | 0.00 | 0.00 | 0.00 | 95 | 1018.8 |
| 20260510031041 | 9 | 39 | 3.2 | 16.1 | 0.00 | 0.00 | 0.00 | 94 | 1018.8 |
| 20260510030228 | 9 | 8 | 3.2 | 16.1 | 0.00 | 0.00 | 0.00 | 94 | 1018.8 |
| 20260510025728 | 9 | 37 | 3.2 | 11.3 | 0.00 | 0.00 | 0.00 | 94 | 1018.8 |
| 20260510025228 | 9 | 322 | 3.2 | 12.9 | 0.00 | 0.00 | 0.00 | 94 | 1018.8 |
| 20260510024728 | 9 | 61 | 3.2 | 12.9 | 0.00 | 0.00 | 0.00 | 94 | 1018.9 |
| 20260510024228 | 9 | 62 | 3.2 | 16.1 | 0.00 | 0.00 | 0.00 | 94 | 1018.8 |
| 20260510023727 | 9 | 6 | 3.2 | 16.1 | 0.00 | 0.00 | 0.00 | 94 | 1018.8 |
| 20260510023226 | 9 | 339 | 3.2 | 14.5 | 0.00 | 0.00 | 0.00 | 94 | 1018.9 |
| 20260510022727 | 9 | 11 | 3.2 | 14.5 | 0.00 | 0.00 | 0.00 | 95 | 1019.0 |
| 20260510022227 | 9 | 350 | 3.2 | 14.5 | 0.00 | 0.00 | 0.00 | 95 | 1019.1 |
| 20260510021727 | 9 | 340 | 3.2 | 14.5 | 0.00 | 0.00 | 0.00 | 95 | 1019.0 |
| 20260510021226 | 9 | 31 | 3.2 | 12.9 | 0.00 | 0.00 | 0.00 | 95 | 1019.1 |
| 20260510020726 | 9 | 304 | 3.2 | 12.9 | 0.00 | 0.00 | 0.00 | 96 | 1019.0 |
| 20260510020226 | 8 | 321 | 3.2 | 12.9 | 0.00 | 0.00 | 0.00 | 96 | 1019.0 |
| 20260510015726 | 8 | 350 | 3.2 | 11.3 | 0.00 | 0.00 | 0.00 | 97 | 1019.0 |
| 20260510015226 | 8 | 4 | 3.2 | 9.7 | 0.00 | 0.00 | 0.00 | 97 | 1019.1 |
| 20260510015038 | 8 | 252 | 3.2 | 9.7 | 0.00 | 0.00 | 0.00 | 97 | 1019.1 |
| 20260510014226 | 8 | 336 | 3.2 | 9.7 | 0.00 | 0.00 | 0.00 | 97 | 1019.1 |
| 20260510013726 | 8 | 320 | 3.2 | 8.0 | 0.00 | 0.00 | 0.00 | 97 | 1019.1 |
| 20260510013226 | 8 | 340 | 1.6 | 8.0 | 0.00 | 0.00 | 0.00 | 97 | 1019.2 |
| 20260510012726 | 8 | 0 | 1.6 | 6.4 | 0.00 | 0.00 | 0.00 | 97 | 1019.3 |
| 20260510012544 | 8 | 0 | 1.6 | 9.7 | 0.00 | 0.00 | 0.00 | 96 | 1019.3 |
| 20260510012040 | 8 | 334 | 3.2 | 9.7 | 0.00 | 0.00 | 0.00 | 96 | 1019.4 |
| 20260510011222 | 8 | 310 | 3.2 | 9.7 | 0.00 | 0.00 | 0.00 | 96 | 1019.4 |
| 20260510011036 | 8 | 327 | 3.2 | 8.0 | 0.00 | 0.00 | 0.00 | 96 | 1019.2 |
| 20260510010223 | 8 | 327 | 3.2 | 8.0 | 0.00 | 0.00 | 0.00 | 96 | 1019.4 |
| 20260510005721 | 8 | 355 | 3.2 | 8.0 | 0.00 | 0.00 | 0.00 | 96 | 1019.4 |
| 20260510005221 | 8 | 310 | 3.2 | 8.0 | 0.00 | 0.00 | 0.00 | 96 | 1019.3 |
| 20260510004719 | 8 | 23 | 3.2 | 8.0 | 0.00 | 0.00 | 0.00 | 96 | 1019.3 |
| 20260510004219 | 8 | 337 | 3.2 | 12.9 | 0.00 | 0.00 | 0.00 | 96 | 1019.3 |
| 20260510003719 | 8 | 333 | 3.2 | 12.9 | 0.00 | 0.00 | 0.00 | 96 | 1019.3 |
| 20260510003604 | 8 | 339 | 3.2 | 9.7 | 0.00 | 0.00 | 0.00 | 95 | 1019.4 |
| 20260510003032 | 8 | 342 | 3.2 | 11.3 | 0.00 | 0.00 | 0.00 | 95 | 1019.5 |
| 20260510002215 | 8 | 317 | 3.2 | 11.3 | 0.00 | 0.00 | 0.00 | 95 | 1019.4 |
| 20260510001716 | 8 | 114 | 3.2 | 8.0 | 0.00 | 0.00 | 0.00 | 95 | 1019.6 |
| 20260510001214 | 8 | 1 | 1.6 | 8.0 | 0.00 | 0.00 | 0.00 | 95 | 1019.6 |
| 20260510000715 | 8 | 329 | 3.2 | 8.0 | 0.00 | 0.00 | 0.00 | 95 | 1019.7 |
| 20260510000213 | 8 | 55 | 3.2 | 9.7 | 0.00 | 0.00 | 0.00 | 95 | 1019.7 |
| 20260510000024 | 8 | 341 | 3.2 | 9.7 | 0.00 | 0.00 | 0.00 | 95 | 1019.7 |
| 20260509235528 | 8 | 325 | 1.6 | 6.4 | 0.00 | 0.00 | 0.00 | 95 | 1019.8 |
| 20260509235027 | 8 | 149 | 1.6 | 8.0 | 0.00 | 0.00 | 0.00 | 95 | 1019.8 |
| 20260509234212 | 9 | 340 | 1.6 | 8.0 | 0.00 | 0.00 | 0.00 | 95 | 1019.9 |
| 20260509233711 | 9 | 0 | 1.6 | 8.0 | 0.00 | 0.00 | 0.00 | 95 | 1020.0 |
| 20260509233224 | 9 | 0 | 1.6 | 8.0 | 0.00 | 0.00 | 0.00 | 94 | 1020.0 |
| 20260509232712 | 9 | 0 | 1.6 | 9.7 | 0.00 | 0.00 | 0.00 | 94 | 1019.9 |
| 20260509232213 | 9 | 281 | 1.6 | 9.7 | 0.00 | 0.00 | 0.00 | 94 | 1019.8 |
| 20260509231713 | 9 | 35 | 1.6 | 11.3 | 0.00 | 0.00 | 0.00 | 94 | 1019.7 |
| 20260509231213 | 9 | 0 | 1.6 | 11.3 | 0.00 | 0.00 | 0.00 | 94 | 1019.7 |
| 20260509230819 | 9 | 9 | 1.6 | 9.7 | 0.00 | 0.00 | 0.00 | 94 | 1019.7 |
| 20260509225812 | 9 | 40 | 3.2 | 14.5 | 0.00 | 0.00 | 0.00 | 93 | 1019.7 |
| 20260509224705 | 10 | 1 | 3.2 | 14.5 | 0.00 | 0.00 | 0.00 | 93 | 1019.5 |
| 20260509224205 | 10 | 124 | 4.8 | 14.5 | 0.00 | 0.00 | 0.00 | 93 | 1019.4 |
| 20260509223705 | 10 | 335 | 3.2 | 12.9 | 0.00 | 0.00 | 0.00 | 93 | 1019.4 |
| 20260509223206 | 10 | 320 | 3.2 | 16.1 | 0.00 | 0.00 | 0.00 | 93 | 1019.4 |
| 20260509222705 | 10 | 327 | 3.2 | 16.1 | 0.00 | 0.00 | 0.00 | 93 | 1019.4 |
| 20260509222205 | 10 | 57 | 3.2 | 16.1 | 0.00 | 0.00 | 0.00 | 93 | 1019.4 |
| 20260509221704 | 10 | 11 | 3.2 | 14.5 | 0.00 | 0.00 | 0.00 | 92 | 1019.4 |
| 20260509221515 | 10 | 0 | 3.2 | 11.3 | 0.00 | 0.00 | 0.00 | 92 | 1019.4 |
| 20260509220704 | 10 | 83 | 3.2 | 11.3 | 0.00 | 0.00 | 0.00 | 92 | 1019.5 |
| 20260509220159 | 10 | 29 | 3.2 | 11.3 | 0.00 | 0.00 | 0.00 | 92 | 1019.3 |
| 20260509215700 | 10 | 357 | 3.2 | 12.9 | 0.00 | 0.00 | 0.00 | 92 | 1019.2 |
| 20260509215200 | 10 | 40 | 3.2 | 12.9 | 0.00 | 0.00 | 0.00 | 92 | 1019.2 |
| 20260509214700 | 10 | 19 | 3.2 | 11.3 | 0.00 | 0.00 | 0.00 | 92 | 1019.2 |
| 20260509214201 | 10 | 22 | 3.2 | 11.3 | 0.00 | 0.00 | 0.00 | 92 | 1019.2 |
| 20260509214016 | 10 | 61 | 3.2 | 12.9 | 0.00 | 0.00 | 0.00 | 91 | 1019.3 |
| 20260509213202 | 10 | 41 | 3.2 | 12.9 | 0.00 | 0.00 | 0.00 | 91 | 1019.2 |
| 20260509212700 | 10 | 74 | 3.2 | 12.9 | 0.00 | 0.00 | 0.00 | 91 | 1019.2 |
| 20260509212201 | 10 | 4 | 3.2 | 12.9 | 0.00 | 0.00 | 0.00 | 91 | 1019.2 |
| 20260509211700 | 10 | 349 | 3.2 | 14.5 | 0.00 | 0.00 | 0.00 | 91 | 1019.2 |
| 20260509211159 | 10 | 64 | 3.2 | 14.5 | 0.00 | 0.00 | 0.00 | 90 | 1019.1 |
| 20260509210702 | 10 | 169 | 3.2 | 12.9 | 0.00 | 0.00 | 0.00 | 89 | 1019.1 |
| 20260509210156 | 10 | 81 | 3.2 | 12.9 | 0.00 | 0.00 | 0.00 | 89 | 1019.2 |
| 20260509210009 | 10 | 327 | 3.2 | 12.9 | 0.00 | 0.00 | 0.00 | 88 | 1019.3 |
| 20260509205640 | 11 | 134 | 4.8 | 11.3 | 0.00 | 0.00 | 0.00 | 87 | 1019.3 |
| 20260509204157 | 11 | 318 | 3.2 | 9.7 | 0.00 | 0.00 | 0.00 | 84 | 1019.3 |
| 20260509203656 | 11 | 6 | 3.2 | 12.9 | 0.00 | 0.00 | 0.00 | 83 | 1019.4 |
| 20260509203516 | 11 | 334 | 3.2 | 12.9 | 0.00 | 0.00 | 0.00 | 80 | 1019.4 |
| 20260509202652 | 11 | 328 | 3.2 | 11.3 | 0.00 | 0.00 | 0.00 | 78 | 1019.4 |
| 20260509202153 | 12 | 332 | 3.2 | 11.3 | 0.00 | 0.00 | 0.00 | 76 | 1019.3 |
| 20260509202022 | 12 | 342 | 3.2 | 9.7 | 0.00 | 0.00 | 0.00 | 74 | 1019.2 |
| 20260509201153 | 12 | 342 | 3.2 | 9.7 | 0.00 | 0.00 | 0.00 | 71 | 1019.2 |
| 20260509200652 | 12 | 0 | 1.6 | 11.3 | 0.00 | 0.00 | 0.00 | 66 | 1019.2 |
| 20260509200152 | 12 | 290 | 1.6 | 11.3 | 0.00 | 0.00 | 0.00 | 64 | 1019.2 |
| 20260509200021 | 12 | 0 | 3.2 | 11.3 | 0.00 | 0.00 | 0.00 | 64 | 1019.1 |
| 20260509195506 | 12 | 31 | 3.2 | 11.3 | 0.00 | 0.00 | 0.00 | 63 | 1018.9 |
| 20260509194650 | 12 | 347 | 3.2 | 14.5 | 0.00 | 0.00 | 0.00 | 61 | 1018.9 |
| 20260509194150 | 13 | 277 | 3.2 | 14.5 | 0.00 | 0.00 | 0.00 | 59 | 1018.8 |
| 20260509193651 | 13 | 341 | 1.6 | 14.5 | 0.00 | 0.00 | 0.00 | 58 | 1018.8 |
| 20260509193150 | 13 | 61 | 3.2 | 14.5 | 0.00 | 0.00 | 0.00 | 57 | 1018.8 |
| 20260509192650 | 13 | 36 | 3.2 | 14.5 | 0.00 | 0.00 | 0.00 | 55 | 1018.8 |
| 20260509192151 | 13 | 358 | 3.2 | 14.5 | 0.00 | 0.00 | 0.00 | 54 | 1018.7 |
| 20260509191650 | 13 | 327 | 3.2 | 9.7 | 0.00 | 0.00 | 0.00 | 53 | 1018.5 |
| 20260509191150 | 13 | 288 | 3.2 | 9.7 | 0.00 | 0.00 | 0.00 | 53 | 1018.5 |
| 20260509190646 | 13 | 20 | 3.2 | 11.3 | 0.00 | 0.00 | 0.00 | 53 | 1018.3 |
| 20260509190144 | 14 | 69 | 3.2 | 11.3 | 0.00 | 0.00 | 0.00 | 52 | 1018.4 |
| 20260509190016 | 14 | 61 | 3.2 | 9.7 | 0.00 | 0.00 | 0.00 | 52 | 1018.4 |
| 20260509185456 | 14 | 87 | 3.2 | 9.7 | 0.00 | 0.00 | 0.00 | 51 | 1018.5 |
| 20260509184645 | 15 | 244 | 3.2 | 11.3 | 0.00 | 0.00 | 0.00 | 51 | 1018.4 |
| 20260509184142 | 15 | 346 | 3.2 | 14.5 | 0.00 | 0.00 | 0.00 | 51 | 1018.2 |
| 20260509183642 | 15 | 86 | 3.2 | 14.5 | 0.00 | 0.00 | 0.00 | 50 | 1018.1 |
| 20260509183142 | 15 | 349 | 3.2 | 12.9 | 0.00 | 0.00 | 0.00 | 50 | 1018.2 |
| 20260509182643 | 15 | 227 | 3.2 | 14.5 | 0.00 | 0.00 | 0.00 | 49 | 1018.0 |
| 20260509182143 | 16 | 217 | 4.8 | 17.7 | 0.00 | 0.00 | 0.00 | 48 | 1017.8 |
| 20260509181643 | 16 | 193 | 6.4 | 17.7 | 0.00 | 0.00 | 0.00 | 47 | 1017.8 |
| 20260509181144 | 16 | 61 | 6.4 | 22.5 | 0.00 | 0.00 | 0.00 | 47 | 1017.7 |
| 20260509180639 | 16 | 56 | 8.0 | 22.5 | 0.00 | 0.00 | 0.00 | 47 | 1017.8 |
| 20260509180135 | 16 | 61 | 8.0 | 22.5 | 0.00 | 0.00 | 0.00 | 46 | 1017.7 |
| 20260509175636 | 16 | 162 | 8.0 | 20.9 | 0.00 | 0.00 | 0.00 | 46 | 1017.5 |
| 20260509175135 | 16 | 55 | 8.0 | 19.3 | 0.00 | 0.00 | 0.00 | 46 | 1017.5 |
| 20260509175020 | 16 | 57 | 9.7 | 20.9 | 0.00 | 0.00 | 0.00 | 45 | 1017.5 |
| 20260509174136 | 16 | 41 | 8.0 | 20.9 | 0.00 | 0.00 | 0.00 | 45 | 1017.4 |
| 20260509173637 | 16 | 58 | 8.0 | 20.9 | 0.00 | 0.00 | 0.00 | 45 | 1017.4 |
| 20260509173136 | 16 | 51 | 8.0 | 25.7 | 0.00 | 0.00 | 0.00 | 44 | 1017.6 |
| 20260509172636 | 17 | 54 | 8.0 | 25.7 | 0.00 | 0.00 | 0.00 | 43 | 1017.6 |
| 20260509172136 | 17 | 78 | 8.0 | 25.7 | 0.00 | 0.00 | 0.00 | 43 | 1017.4 |
| 20260509171636 | 17 | 44 | 6.4 | 22.5 | 0.00 | 0.00 | 0.00 | 43 | 1017.3 |
| 20260509171137 | 17 | 55 | 6.4 | 22.5 | 0.00 | 0.00 | 0.00 | 42 | 1016.9 |
| 20260509170633 | 17 | 52 | 4.8 | 22.5 | 0.00 | 0.00 | 0.00 | 43 | 1017.0 |
| 20260509170131 | 17 | 19 | 4.8 | 17.7 | 0.00 | 0.00 | 0.00 | 43 | 1016.9 |
| 20260509165639 | 17 | 5 | 6.4 | 20.9 | 0.00 | 0.00 | 0.00 | 42 | 1017.1 |
| 20260509165132 | 17 | 62 | 8.0 | 20.9 | 0.00 | 0.00 | 0.00 | 42 | 1017.1 |